Brussels, Belgium

10:53 PM CEST on September 19, 2017 (GMT +0200)
Brussels Airport

Weather History for EBBR - February, 2013

Change the Weather History Date:

Thursday, February 21, 2013

  Actual Average Record
Temperature  
Mean Temperature 28 °F -  
Max Temperature 33 °F 48 °F 57 °F (1998)
Min Temperature 24 °F 36 °F 24 °F (2013)
Degree Days  
Heating Degree Days 36    
Moisture  
Dew Point 22 °F    
Average Humidity 76    
Maximum Humidity 93    
Minimum Humidity 51    
Precipitation  
Precipitation 0.00 in - - ()
Sea Level Pressure  
Sea Level Pressure 30.20 in    
Wind  
Wind Speed 6 mph ()    
Max Wind Speed 14 mph    
Max Gust Speed -    
Visibility 7.5 miles    
Events Rain , Snow    
Averages and records for this station are not official NWS values.
T = Trace of Precipitation, MM = Missing Value Source: Averaged Metar Reports

Daily Weather History Graph

Daily Weather History Graph

Search for Another Location

Airport or City:

Trip Planner

Search our weather history database for the weather conditions in past years. The results will help you decide how hot, cold, wet, or windy it might be!

Date:

Astronomy

Feb. 21, 2013 Rise Set
Actual Time 7:42 AM CET 6:09 PM CET
Civil Twilight 7:09 AM CET 6:42 PM CET
Nautical Twilight 6:30 AM CET 7:21 PM CET
Astronomical Twilight 5:52 AM CET 7:59 PM CET
Moon 1:51 PM CET (2/21) 4:54 AM CET (2/21)
Length of Visible Light 11h 33m
Length of Day
10h 26m
Waxing Gibbous, 82% of the Moon is Illuminated
Feb 21
Waxing Gibbous
Feb 25
Full
Mar 4
Last Quarter
Mar 11
New
Mar 19
First Quarter

Hourly Weather History & Observations

Time (CET) Temp. Windchill Dew Point Humidity Pressure Visibility Wind Dir Wind Speed Gust Speed Precip Events Conditions
12:20 AM 28.4 °F 22.2 °F 23.0 °F 80% 30.24 in - ENE 5.8 mph - N/A   Clear
12:50 AM 28.4 °F 22.2 °F 23.0 °F 80% 30.24 in - ENE 5.8 mph - N/A   Clear
1:00 AM 28 °F - 23 °F 72% 30.28 in 16 mi ENE 4.5 mph - -  
1:20 AM 28.4 °F 23.3 °F 23.0 °F 80% 30.27 in - NE 4.6 mph - N/A   Clear
1:50 AM 26.6 °F 21.2 °F 23.0 °F 86% 30.24 in - ENE 4.6 mph - N/A   Clear
2:20 AM 26.6 °F 21.2 °F 23.0 °F 86% 30.24 in - NE 4.6 mph - N/A   Clear
2:50 AM 26.6 °F 21.2 °F 23.0 °F 86% 30.24 in - NE 4.6 mph - N/A   Clear
3:20 AM 26.6 °F 22.6 °F 23.0 °F 86% 30.24 in - NE 3.5 mph - N/A   Clear
3:50 AM 26.6 °F 22.6 °F 23.0 °F 86% 30.24 in - NE 3.5 mph - N/A   Clear
4:00 AM 26 °F - 23 °F 83% 30.27 in 11 mi NE 4.5 mph - -  
4:20 AM 26.6 °F 21.2 °F 23.0 °F 86% 30.24 in - NE 4.6 mph - N/A   Clear
4:50 AM 26.6 °F 20.0 °F 23.0 °F 86% 30.21 in - NE 5.8 mph - N/A   Clear
5:20 AM 26.6 °F 20.0 °F 23.0 °F 86% 30.21 in - ENE 5.8 mph - N/A   Clear
5:50 AM 26.6 °F 21.2 °F 23.0 °F 86% 30.21 in - ENE 4.6 mph - N/A   Clear
6:20 AM 26.6 °F 20.0 °F 21.2 °F 80% 30.21 in - ENE 5.8 mph - N/A   Clear
6:50 AM 24.8 °F 19.1 °F 23.0 °F 93% 30.21 in 6.2 mi NE 4.6 mph - N/A   Partly Cloudy
7:00 AM 25 °F - 22 °F 85% 30.25 in 9 mi NE 4.5 mph - -   Scattered Clouds
7:20 AM 24.8 °F 19.1 °F 21.2 °F 86% 30.21 in - NE 4.6 mph - N/A   Clear
7:50 AM 24.8 °F 19.1 °F 21.2 °F 86% 30.24 in - NE 4.6 mph - N/A   Clear
8:20 AM 26.6 °F 22.6 °F 21.2 °F 80% 30.24 in - NE 3.5 mph - N/A   Clear
8:50 AM 26.6 °F 20.0 °F 23.0 °F 86% 30.24 in - ENE 5.8 mph - N/A   Clear
9:20 AM 26.6 °F 20.0 °F 23.0 °F 86% 30.24 in - ENE 5.8 mph - N/A   Clear
9:50 AM 28.4 °F 19.1 °F 23.0 °F 80% 30.24 in 6.2 mi ENE 10.4 mph - N/A   Partly Cloudy
10:00 AM 28 °F - 23 °F 73% 30.26 in 10 mi ENE 8.9 mph - -   Scattered Clouds
10:20 AM 30.2 °F 21.9 °F 23.0 °F 75% 30.24 in 6.2 mi ENE 9.2 mph - N/A   Scattered Clouds
10:50 AM 30.2 °F 21.3 °F 23.0 °F 75% 30.24 in 6.2 mi ENE 10.4 mph - N/A   Scattered Clouds
11:20 AM 32.0 °F 24.2 °F 21.2 °F 64% 30.24 in 6.2 mi ENE 9.2 mph - N/A   Scattered Clouds
11:50 AM 32.0 °F 22.5 °F 21.2 °F 64% 30.24 in 6.2 mi ENE 12.7 mph - N/A   Scattered Clouds
12:20 PM 32.0 °F 23.6 °F 21.2 °F 64% 30.21 in 6.2 mi East 10.4 mph - N/A   Mostly Cloudy
12:50 PM 32.0 °F 23.6 °F 21.2 °F 64% 30.21 in 6.2 mi ENE 10.4 mph - N/A Rain Light Rain Showers
1:00 PM 32 °F - 22 °F 55% 30.24 in 16 mi ENE 11.2 mph - - Rain Light Rain Showers
1:20 PM 32.0 °F 23.6 °F 23.0 °F 69% 30.21 in 6.2 mi ENE 10.4 mph - N/A   Mostly Cloudy
1:50 PM 32.0 °F 23.0 °F 21.2 °F 64% 30.18 in 6.2 mi ENE 11.5 mph - N/A Snow Light Snow Showers
2:20 PM 32.0 °F 22.5 °F 21.2 °F 64% 30.18 in 6.2 mi ENE 12.7 mph - N/A   Scattered Clouds
2:50 PM 32.0 °F 23.0 °F 19.4 °F 60% 30.18 in 6.2 mi East 11.5 mph - N/A   Mostly Cloudy
3:20 PM 32.0 °F 24.2 °F 23.0 °F 69% 30.18 in 6.2 mi ENE 9.2 mph - N/A   Partly Cloudy
3:50 PM 32.0 °F 23.0 °F 21.2 °F 64% 30.15 in 6.2 mi ENE 11.5 mph - N/A Snow Light Snow Showers
4:00 PM 32 °F - 21 °F 51% 30.19 in 19 mi ENE 11.2 mph - - Snow Light Snow Showers
4:20 PM 32.0 °F 22.1 °F 21.2 °F 64% 30.15 in 6.2 mi ENE 13.8 mph - N/A   Scattered Clouds
4:50 PM 32.0 °F 23.0 °F 21.2 °F 64% 30.15 in 6.2 mi ENE 11.5 mph - N/A Snow Light Snow Showers
5:20 PM 30.2 °F 20.8 °F 21.2 °F 69% 30.15 in 6.2 mi ENE 11.5 mph - N/A   Partly Cloudy
5:50 PM 30.2 °F 21.9 °F 23.0 °F 75% 30.15 in 6.2 mi ENE 9.2 mph - N/A   Mostly Cloudy
6:20 PM 30.2 °F 22.6 °F 23.0 °F 75% 30.15 in 6.2 mi ENE 8.1 mph - N/A   Partly Cloudy
6:50 PM 30.2 °F 21.3 °F 23.0 °F 75% 30.15 in 6.2 mi NE 10.4 mph - N/A   Partly Cloudy
7:00 PM 30 °F - 23 °F 67% 30.18 in 28 mi NE 11.2 mph - -   Partly Cloudy
7:20 PM 30.2 °F 22.6 °F 23.0 °F 75% 30.15 in 6.2 mi NE 8.1 mph - N/A   Partly Cloudy
7:50 PM 28.4 °F 21.2 °F 23.0 °F 80% 30.15 in 6.2 mi NE 6.9 mph - N/A   Partly Cloudy
8:20 PM 28.4 °F 22.2 °F 23.0 °F 80% 30.15 in 6.2 mi NE 5.8 mph - N/A   Partly Cloudy
8:50 PM 28.4 °F 22.2 °F 23.0 °F 80% 30.15 in 6.2 mi NE 5.8 mph - N/A   Partly Cloudy
9:20 PM 28.4 °F 19.7 °F 23.0 °F 80% 30.15 in 6.2 mi NE 9.2 mph - N/A   Scattered Clouds
9:50 PM 28.4 °F 20.4 °F 23.0 °F 80% 30.15 in - ENE 8.1 mph - N/A   Clear
10:00 PM 29 °F - 22 °F 67% 30.17 in 25 mi ENE 8.9 mph - -   Partly Cloudy
10:20 PM 28.4 °F 19.7 °F 21.2 °F 74% 30.12 in 6.2 mi ENE 9.2 mph - N/A Snow Light Snow
10:50 PM 30.2 °F 22.6 °F 23.0 °F 75% 30.12 in 6.2 mi ENE 8.1 mph - N/A Snow Light Snow
11:20 PM 30.2 °F 21.9 °F 23.0 °F 75% 30.12 in 6.2 mi ENE 9.2 mph - N/A Snow Light Snow
11:50 PM 28.4 °F 19.7 °F 23.0 °F 80% 30.12 in - ENE 9.2 mph - N/A   Clear